GLOBALSTAR M085

Last updated on Sun Jun 21 2026 00:03:18 GMT+0000 (Coordinated Universal Time)

1 37742U 11033D 26171.45685690 -.00000114 00000+0 -57461-4 0 9995 2 37742 52.0094 183.2553 0000182 323.4901 193.9145 12.62264122690202
UTC large
Height (km)
Speed (km/s)
/
Latitude / Longitude
Inclination (degrees)
Orbital Period (minutes)
Azimuth
Elevation
Range (km)
Doppler Factor

Next 0 passes for location: London (51.5072 / 0.1276)

No passes found over London.
GLOBALSTAR M085